EW8409 Weather Reports


Display with metric or nautical units.
time (UTC)temp
F
wind
direction
speed
MPH
gust
MPH
rain 1hr
in
rain 24hr
in
rain mn
in
humidity
%
barometer
mb
20260904114558 63 160 0.0 0.0 0.00 0.64 0.00 99 1014.0
20260904113101 62 160 0.0 0.0 0.00 0.64 0.00 99 1014.0
20260904111556 62 160 0.0 0.0 0.00 0.64 0.00 99 1013.9
20260904110058 62 160 0.0 0.0 0.00 0.64 0.00 99 1013.8
20260904104600 62 160 0.0 0.0 0.00 0.64 0.00 99 1013.5
20260904103053 62 160 0.0 0.0 0.00 0.64 0.00 99 1013.6
20260904101603 63 160 0.0 0.0 0.00 0.64 0.00 99 1013.3
20260904100049 63 160 0.0 0.0 0.00 0.64 0.00 99 1013.2
20260904094549 63 160 0.0 0.0 0.00 0.64 0.00 99 1013.1
20260904093108 64 160 0.0 0.0 0.00 0.64 0.00 99 1013.2
20260904091545 64 160 0.0 0.0 0.00 0.64 0.00 99 1013.0
20260904090047 64 182 0.0 0.0 0.00 0.64 0.00 99 1013.0
20260904084541 64 182 0.0 0.0 0.00 0.64 0.00 99 1012.8
20260904083040 64 182 0.0 0.0 0.00 0.64 0.00 99 1012.7
20260904081541 64 184 0.0 0.0 0.00 0.64 0.00 99 1012.5
20260904080041 64 184 0.0 0.0 0.00 0.64 0.00 99 1012.3
20260904074540 64 184 0.0 0.0 0.00 0.64 0.00 99 1012.3
20260904073039 64 184 0.0 0.0 0.00 0.64 0.00 99 1012.3
20260904071536 64 184 0.0 0.0 0.00 0.64 0.00 98 1012.2
20260904070045 65 184 0.0 0.0 0.00 0.64 0.00 98 1012.2
20260904064543 65 184 0.0 0.0 0.00 0.64 0.00 98 1012.1
20260904063036 65 184 0.0 0.0 0.00 0.64 0.00 98 1012.1
20260904061538 66 184 0.0 0.0 0.00 0.64 0.00 98 1012.3
20260904060026 67 184 0.0 0.0 0.00 0.64 0.00 98 1012.3
20260904054531 68 168 0.0 0.0 0.00 0.64 0.00 99 1012.4
20260904053022 68 168 0.0 0.0 0.00 0.64 0.00 98 1012.5
20260904051520 68 168 0.0 0.0 0.00 0.64 0.00 98 1012.6
20260904050021 68 168 0.0 0.0 0.00 0.64 0.00 98 1012.6
20260904044525 68 168 0.0 0.0 0.00 0.64 0.00 98 1012.7
20260904043016 68 168 0.0 0.0 0.00 0.64 0.00 98 1012.6
20260904041512 68 168 0.0 0.0 0.00 0.64 0.00 98 1012.5
20260904040011 68 168 0.0 0.0 0.00 0.64 0.00 98 1012.4
20260904034517 68 168 0.0 0.0 0.00 0.65 0.64 98 1012.5
20260904033009 68 168 0.0 0.0 0.00 0.65 0.64 98 1012.3
20260904031513 68 168 0.0 0.0 0.00 0.65 0.64 98 1012.2
20260904030009 68 168 0.0 0.0 0.00 0.65 0.64 98 1012.1
20260904024508 68 168 0.0 0.0 0.00 0.72 0.64 98 1012.2
20260904023007 68 168 0.0 0.0 0.00 0.72 0.64 98 1012.2
20260904021507 69 168 0.0 0.0 0.07 0.72 0.64 98 1012.4
20260904020006 69 168 0.0 0.0 0.19 0.72 0.64 97 1012.4
20260904014505 69 168 0.0 0.0 0.59 0.80 0.64 97 1012.3
20260904013005 69 168 0.0 0.0 0.61 0.80 0.64 97 1012.2
20260904011511 70 169 0.0 0.0 0.54 0.73 0.56 96 1012.3
20260904010004 70 157 0.0 0.0 0.42 0.61 0.45 96 1012.1
20260904004501 72 157 0.0 0.0 0.01 0.38 0.04 97 1011.8
20260904003059 72 160 0.0 0.0 0.00 0.37 0.03 97 1011.9
20260904001559 72 160 0.0 0.0 0.00 0.37 0.03 96 1011.5
20260903234558 72 160 0.0 0.0 0.00 0.67 0.03 96 1011.8
20260903233058 72 160 0.0 0.0 0.00 0.67 0.03 96 1011.8
20260903231558 72 160 0.0 0.0 0.00 0.67 0.03 95 1011.9
20260903230056 73 160 0.0 0.0 0.00 0.67 0.03 95 1011.7
20260903224558 73 160 0.0 0.0 0.00 0.67 0.03 95 1011.7
20260903223056 73 160 0.0 0.0 0.00 0.67 0.03 94 1011.4
20260903221556 73 160 0.0 0.0 0.00 0.67 0.03 94 1011.5
20260903220107 73 160 0.0 0.0 0.00 0.67 0.03 94 1011.2
20260903214556 72 160 0.0 0.0 0.03 0.67 0.03 94 1011.4
20260903213058 72 160 0.0 0.0 0.03 0.67 0.03 93 1011.5
20260903211555 72 150 0.0 0.0 0.03 0.67 0.03 93 1011.6
20260903210056 72 150 0.0 0.0 0.03 0.67 0.03 91 1011.5
20260903204550 72 330 0.0 0.0 0.00 0.64 0.00 89 1011.8
20260903203112 72 6 0.0 0.0 0.00 0.64 0.00 89 1011.7
20260903201548 73 20 0.0 1.0 0.00 0.64 0.00 88 1011.8
20260903200048 75 351 0.0 0.0 0.00 0.64 0.00 84 1011.8
20260903194555 77 327 0.0 0.0 0.00 0.64 0.00 83 1011.7
20260903193047 76 304 0.0 0.0 0.00 0.64 0.00 84 1011.8
20260903191548 76 304 0.0 0.0 0.00 0.64 0.00 83 1011.8
20260903190047 78 63 0.0 0.0 0.00 0.64 0.00 81 1011.6
20260903184546 81 319 0.0 0.0 0.00 0.64 0.00 72 1011.8
20260903183047 82 291 0.0 0.0 0.00 0.64 0.00 70 1011.9
20260903181545 83 135 0.0 0.0 0.00 0.64 0.00 67 1012.0
20260903180043 83 193 0.0 1.0 0.00 0.64 0.00 66 1012.0
20260903174542 83 203 0.0 0.0 0.00 0.64 0.00 65 1012.1
20260903173039 83 139 0.0 0.0 0.00 0.64 0.00 68 1012.1
20260903171554 82 155 0.0 0.0 0.00 0.64 0.00 67 1012.1
20260903170035 81 150 0.0 0.0 0.00 0.64 0.00 68 1012.3
20260903164533 80 167 0.0 0.0 0.00 0.64 0.00 68 1012.3
20260903163029 80 165 0.0 0.0 0.00 0.64 0.00 65 1012.4
20260903161528 78 158 0.0 0.0 0.00 0.64 0.00 63 1012.6
20260903160030 78 172 0.0 0.0 0.00 0.64 0.00 65 1012.8
20260903154523 77 181 0.0 0.0 0.00 0.64 0.00 77 1013.0
20260903153016 76 192 0.0 0.0 0.00 0.64 0.00 79 1013.1
20260903151516 75 353 0.0 1.0 0.00 0.64 0.00 83 1013.0
20260903150015 74 1 0.0 0.0 0.00 0.64 0.00 91 1013.1
20260903144525 73 138 0.0 1.0 0.00 0.64 0.00 95 1013.2
20260903143003 72 138 0.0 0.0 0.00 0.64 0.00 97 1013.3
20260903141501 72 172 0.0 0.0 0.00 0.64 0.00 98 1013.1
20260903140100 71 174 0.0 0.0 0.00 0.64 0.00 98 1013.0
20260903134601 71 207 0.0 0.0 0.00 0.65 0.00 99 1013.0
20260903133100 71 186 0.0 0.0 0.00 0.65 0.00 99 1013.1
20260903131555 70 241 0.0 0.0 0.00 0.65 0.00 99 1013.2
20260903130051 70 176 0.0 0.0 0.00 0.65 0.00 99 1013.2
20260903124604 69 150 0.0 0.0 0.00 0.70 0.00 99 1013.4
20260903123048 69 165 0.0 0.0 0.00 0.70 0.00 99 1013.3
20260903121546 69 180 0.0 0.0 0.00 0.70 0.00 99 1013.2
20260903120056 68 184 0.0 0.0 0.00 0.70 0.00 99 1012.9